DELTA 1 DEB, 7045

Orbit data source: Space-Track

DELTA 1 DEB, 7045 is space debris in SSO originally from a launch on Tue, 06 Nov 1973 UTC launched from the Air Force Western Test Range (AFWTR). Debris objects in space refer to the collection of defunct objects orbiting the Earth. Examples of debris include non-operational satellites, rocket bodies, and fragments generated from explosions, collisions, or faulty payload assembly.

Loading next visibility...
DELTA 1 DEB details
Identifier
7045, 1973-086AM
Orbit
SSO
Last TLE update23 hours ago
Origin
Flag of USGSFC (US)
ManufacturerUnknown
MissionSpacecraft
Bus & MotorUnknown
MassUnknown
Launch date (UTC)
1973-11-06 (51 years ago)
Launch vehicleUnknown
Launch site
Air Force Western Test Range (AFWTR)
Object type
Payload
Rocket body
Debris
Shape & HBRUnknown
Radar Cross SectionMedium (>0.1 m² and <1 m²)

Expand to show TLE details & history

TLE from 23 hours ago
0 DELTA 1 DEB
1 07045U 73086AM  24360.48286706  .00000025  00000-0  62890-3 0  9991
2 07045 102.6163   4.2636 0077137 215.2765 300.5012 12.26107857281484
Epoch: 2024-12-25T11:35Z
Definitive object data (Epoch: 2024-12-25T11:35:19.714Z)
Latitude24.37074°
Longitude-78.25354°
Altitude1,537.88 km
Speed7.113 km/s
True Right ascension12h 40m 13s
True Declination24° 15' 16"
Sunlit
Object was in daylight at TLE epoch
Visualization TLE readout
Latitude28.9862°
Longitude-75.97048°
Altitude1,541.364 km
Speed7.111 km/s
Apparent Right ascension15h 45m 55s
Apparent Declination-3° 28' 16"
Sunlit
Object is in daylight
Visualization observer readout
Local Sidereal Time10:24:58
Azimuth98.957° ESE
Elevation5.219°
Doppler factor1
Orbital elements
Apogee altitude1,624.94 km
Perigee altitude1,502.418 km
Semi-major axis7,941.816 km
Eccentricity0.0077137
Inclination102.6163°
RAAN4.2636°
Arg. of periapsis215.2765°
True anomaly299.73587°
Mean anomaly300.5012°
Eccentric anomaly300.11891°
Mean motion3.06664 °/min
BSTAR0.0006289
Orbital period117.39 mins
Loading maneuver chart data...
Loading historical data...
Loading historical data...
Loading historical data...
Loading historical data...
Loading historical data...
Loading historical data...
Loading historical data...

DELTA 1 DEB Visibility forecast

Observer location: undefined°, undefined

Span
Click to sort rows by Start time (UTC) header in descending order
Start Az.
Max El. time (UTC)
Max El. Az.
Max El.
End time (UTC)
End Az.
15 mins2024-12-26 12:50:41.311Z30.07° NE2024-12-26 12:58:41.311Z111.887° ESE38.05°2024-12-26 13:05:41.311Z175.311° S
14 mins2024-12-26 14:46:41.311Z359.925° N2024-12-26 14:52:41.311Z307.198° NW31.901°2024-12-26 15:00:41.311Z238.405° WSW
11 mins2024-12-26 22:11:41.311Z86.776° E2024-12-26 22:16:41.311Z48.737° ENE20.393°2024-12-26 22:22:41.311Z5.731° NNE
16 mins2024-12-27 00:02:41.311Z155.409° SSE2024-12-27 00:10:41.311Z34.147° NE44.793°2024-12-27 00:18:41.311Z343.017° N
11 mins2024-12-27 02:01:41.311Z230.798° WSW2024-12-27 02:06:41.311Z269.691° W19.893°2024-12-27 02:12:41.311Z312.227° NW
|